Location: Unspecified
(52.4292°N, 19.3359°E)
Time: 02:17:35
(UTC+02:00)

Vanguard 1 Rocket - Pass Details

Date: 26 May 2024
Orbit: 649 x 4221 km, 34.3° (Epoch: 13 June)

Event Time Altitude Azimuth Distance (km) Brightness Sun altitude
Rises 06:32:51 0° 195° (SSW) 8,444 12.0 15.6°
Reaches altitude 10° 06:41:32 10° 181° (S) 7,358 11.9 16.9°
Maximum altitude 06:56:18 20° 145° (SE) 5,867 12.0 19.1°
Drops below altitude 10° 07:07:55 10° 106° (ESE) 5,753 12.9 20.9°
Sets 07:13:14 0° 91° (E) 6,196 13.1 21.7°
